Surface/Precipitation History
03/28/2015 06:30  to  3/29/2015 06:30
Change End Date:
Date/Time
(MDT)
Sf
Temp Chem Water Layer Surface Precipitation
Sf Sub Frz Factor Pct Depth IcePct Cond Salin Type Intens Accum Rate
03/29/2015 06:21 Dry 34.7F 49F - - - - - 0 mhos 0 None None - -
03/29/2015 06:15 Dry 34.7F 49F - - - - - 0 mhos 0 None None - -
03/29/2015 06:05 Dry 34.9F 49F - - - - - 0 mhos 0 None None - -
03/29/2015 06:05 Dry 34.9F 49F - - - - - 0 mhos 0 None None - -
03/29/2015 05:55 Dry 34.9F 49F - - - - - 0 mhos 0 None None - -
03/29/2015 05:51 Dry 34.9F 49F - - - - - 0 mhos 0 None None - -
03/29/2015 05:45 Dry 34.9F 49F - - - - - 0 mhos 0 None None - -
03/29/2015 05:40 Dry 34.9F 49F - - - - - 0 mhos 0 None None - -
03/29/2015 05:35 Dry 34.9F 49F - - - - - 0 mhos 0 None None - -
03/29/2015 05:25 Dry 34.9F 49F - - - - - 0 mhos 0 None None - -
03/29/2015 05:21 Dry 34.9F 49F - - - - - 0 mhos 0 None None - -
03/29/2015 05:15 Dry 34.9F 49F - - - - - 0 mhos 0 None None - -
03/29/2015 05:05 Dry 34.9F 49F - - - - - 0 mhos 0 None None - -
03/29/2015 04:55 Dry 34.9F 49F - - - - - 0 mhos 0 None None - -
03/29/2015 04:45 Dry 34.9F 49F - - - - - 0 mhos 0 None None - -
Date/Time
(MDT)
Sf
Temp Chem Water Layer Surface Precipitation
Sf Sub Frz Factor Pct Depth IcePct Cond Salin Type Intens Accum Rate
03/29/2015 04:35 Dry 34.9F 49F - - - - - 0 mhos 0 None None - -
03/29/2015 04:24 Dry 34.9F 49F - - - - - 0 mhos 0 None None - -
03/29/2015 04:14 Dry 34.7F 49F - - - - - 0 mhos 0 None None - -
03/29/2015 04:10 Dry 34.9F 49F - - - - - 0 mhos 0 None None - -
03/29/2015 04:04 Dry 34.9F 49F - - - - - 0 mhos 0 None None - -
03/29/2015 03:54 Dry 35.1F 49F - - - - - 0 mhos 0 None None - -
03/29/2015 03:51 Dry 35.2F 49F - - - - - 0 mhos 0 None None - -
03/29/2015 03:44 Dry 35.2F 49F - - - - - 0 mhos 0 None None - -
03/29/2015 03:34 Dry 35.1F 50F - - - - - 0 mhos 0 None None - -
03/29/2015 03:24 Dry 34.9F 50F - - - - - 0 mhos 0 None None - -
03/29/2015 03:14 Dry 35.2F 50F - - - - - 0 mhos 0 None None - -
03/29/2015 03:04 Dry 35.4F 50F - - - - - 0 mhos 0 None None - -
03/29/2015 02:54 Dry 35.6F 50F - - - - - 0 mhos 0 None None - -
03/29/2015 02:51 Dry 35.6F 50F - - - - - 0 mhos 0 None None - -
03/29/2015 02:44 Dry 35.6F 50F - - - - - 0 mhos 0 None None - -
Date/Time
(MDT)
Sf
Temp Chem Water Layer Surface Precipitation
Sf Sub Frz Factor Pct Depth IcePct Cond Salin Type Intens Accum Rate
03/29/2015 02:41 Dry 35.8F 50F - - - - - 0 mhos 0 None None - -
03/29/2015 02:34 Dry 35.8F 50F - - - - - 0 mhos 0 None None - -
03/29/2015 02:24 Wet 35.8F 50F 32F 5 0% 0.00 in 0% 0 mhos 0 None None - -
03/29/2015 02:21 Wet 35.8F 50F 32F 5 0% 0.00 in 0% 0 mhos 0 None None - -
03/29/2015 02:14 Wet 36.1F 50F 32F 5 0% 0.00 in 0% 0 mhos 0 None None - -
03/29/2015 02:11 Wet 36.1F 50F 32F 5 0% 0.00 in 0% 0 mhos 0 None None - -
03/29/2015 02:04 Wet 36.1F 50F 32F 5 0% 0.00 in 0% 0 mhos 0 None None - -
03/29/2015 01:54 Wet 36.1F 50F 32F 5 0% - 0% 0 mhos 0 None None - -
03/29/2015 01:52 Wet 36.1F 50F 32F 5 0% - 0% 0 mhos 0 None None - -
03/29/2015 01:44 Wet 36.3F 50F 32F 5 0% 0.00 in 0% 0 mhos 0 None None - -
03/29/2015 01:41 Wet 36.5F 50F 32F 5 0% - 0% 0 mhos 0 None None - -
03/29/2015 01:34 Wet 36.7F 50F 32F 5 0% 1.70 in 0% 0 mhos 0 None None - -
03/29/2015 01:24 Wet 36.9F 50F 32F 5 0% 0.00 in 0% 0 mhos 0 None None - -
03/29/2015 01:21 Wet 37.0F 50F 32F 5 0% 0.00 in 0% 0 mhos 0 None None - -
03/29/2015 01:14 Wet 37.4F 50F 32F 5 0% 5.80 in 0% 0 mhos 0 None None - -
Date/Time
(MDT)
Sf
Temp Chem Water Layer Surface Precipitation
Sf Sub Frz Factor Pct Depth IcePct Cond Salin Type Intens Accum Rate
03/29/2015 01:10 Wet 37.4F 50F 32F 5 0% 2.60 in 0% 0 mhos 0 None None - -
03/29/2015 01:04 Wet 37.6F 50F 32F 5 0% 1.00 in 0% 0 mhos 0 None None - -
03/29/2015 00:54 Wet 38.1F 50F 32F 5 0% 0.40 in 0% 0 mhos 1 None None - -
03/29/2015 00:51 Wet 38.5F 50F 32F 5 0% 0.40 in 0% 0 mhos 1 None None - -
03/29/2015 00:44 Wet 38.7F 50F 32F 5 0% 0.00 in 0% 0 mhos 1 None None - -
03/29/2015 00:40 Wet 38.7F 50F 32F 5 0% 0.00 in 0% 0 mhos 1 None None - -
03/29/2015 00:34 Wet 38.8F 50F 32F 5 0% 0.10 in 0% 0 mhos 1 None None - -
03/29/2015 00:24 Wet 38.7F 50F 32F 5 0% 0.00 in 0% 0 mhos 2 None None - -
03/29/2015 00:21 Wet 38.7F 50F 32F 5 0% 0.00 in 0% 0 mhos 2 None None - -
03/29/2015 00:14 Wet 38.1F 50F 32F 5 0% 0.00 in 0% 0 mhos 2 None None - -
03/29/2015 00:11 Wet 38.1F 50F 32F 5 0% 0.00 in 0% 0 mhos 3 None None - -
03/29/2015 00:04 Wet 37.8F 50F 32F 5 0% 0.00 in 0% 0 mhos 4 None None - -
03/28/2015 23:57 Wet 37.6F 50F 32F 5 0% 0.00 in 0% 0 mhos 4 None None - -
03/28/2015 23:54 Wet 37.6F 51F 32F 5 0% 0.00 in 0% 0 mhos 5 None None - -
03/28/2015 23:44 Wet 37.9F 51F 32F 5 0% 0.00 in 0% 0 mhos 6 None None - -
Date/Time
(MDT)
Sf
Temp Chem Water Layer Surface Precipitation
Sf Sub Frz Factor Pct Depth IcePct Cond Salin Type Intens Accum Rate
03/28/2015 23:41 Wet 38.1F 51F 32F 5 0% 0.00 in 0% 0 mhos 7 None None - -
03/28/2015 23:33 Wet 38.5F 51F 32F 5 0% 0.00 in 0% 0 mhos 7 None None - -
03/28/2015 23:23 Wet 38.7F 51F 32F 5 0% 0.00 in 0% 0 mhos 8 None None - -
03/28/2015 23:21 Wet 38.7F 51F 32F 5 0% 0.00 in 0% 0 mhos 8 None None - -
03/28/2015 23:13 Wet 39.0F 51F 32F 5 0% 0.00 in 0% 0 mhos 10 None None - -
03/28/2015 23:11 Wet 39.2F 51F 32F 5 0% 0.00 in 0% 0 mhos 11 None None - -
03/28/2015 23:03 Wet 39.7F 51F 32F 5 0% 0.00 in 0% 0 mhos 12 None None - -
03/28/2015 22:53 Wet 39.7F 51F 32F 5 0% 0.00 in 0% 0 mhos 13 None None - -
03/28/2015 22:51 Wet 39.7F 51F 32F 5 0% 0.00 in 0% 0 mhos 13 None None - -
03/28/2015 22:43 Wet 40.1F 51F 32F 5 0% 0.00 in 0% 0 mhos 14 None None - -
03/28/2015 22:40 Wet 40.3F 51F 32F 5 0% 0.00 in 0% 0 mhos 14 None None - -
03/28/2015 22:33 Wet 40.5F 51F 32F 5 0% 0.00 in 0% 0 mhos 14 None None - -
03/28/2015 22:23 Wet 41.2F 51F 32F 5 0% 0.00 in 0% 0 mhos 11 None None - -
03/28/2015 22:21 Wet 41.2F 51F 32F 5 0% 0.00 in 0% 0 mhos 11 Yes - - -
03/28/2015 22:13 Wet 41.4F 51F 32F 5 0% 0.00 in 0% 0 mhos 7 None None - -
Date/Time
(MDT)
Sf
Temp Chem Water Layer Surface Precipitation
Sf Sub Frz Factor Pct Depth IcePct Cond Salin Type Intens Accum Rate
03/28/2015 22:11 Wet 41.5F 51F 32F 5 0% 0.00 in 0% 0 mhos 5 None None - -
03/28/2015 22:03 Wet 41.7F 51F 32F 5 0% 0.00 in 0% 0 mhos 10 None None - -
03/28/2015 21:53 Wet 42.4F 51F 32F 5 0% 0.00 in 0% 0 mhos 10 Yes - - -
03/28/2015 21:51 Wet 42.4F 51F 32F 5 0% 0.00 in 0% 0 mhos 10 Yes - - -
03/28/2015 21:43 Wet 42.6F 51F 32F 5 0% 0.00 in 0% 0 mhos 10 Yes - - -
03/28/2015 21:41 Wet 42.8F 51F 32F 5 0% 0.00 in 0% 0 mhos 10 Yes - - -
03/28/2015 21:33 Wet 42.8F 51F 32F 5 0% 0.00 in 0% 0 mhos 10 Yes - - -
03/28/2015 21:23 Wet 42.4F 51F 32F 5 0% 0.00 in 0% 0 mhos 8 Yes - - -
03/28/2015 21:13 Wet 42.4F 51F 32F 5 0% 0.00 in 0% 0 mhos 7 Yes - - -
03/28/2015 21:10 Wet 42.4F 51F 32F 5 0% 0.00 in 0% 0 mhos 7 Yes - - -
03/28/2015 21:03 Wet 42.4F 51F 32F 5 0% 0.00 in 0% 0 mhos 7 Yes - - -
03/28/2015 20:53 Wet 42.4F 51F 32F 5 0% 0.00 in 0% 0 mhos 6 Yes - - -
03/28/2015 20:51 Wet 42.4F 51F 32F 5 0% 0.00 in 0% 0 mhos 4 Yes - - -
03/28/2015 20:43 Wet 42.4F 51F 32F 10 0% 0.10 in 0% 0 mhos 3 Yes - - -
03/28/2015 20:40 Wet 42.4F 51F 32F 5 0% 0.00 in 0% 0 mhos 11 Yes - - -
Date/Time
(MDT)
Sf
Temp Chem Water Layer Surface Precipitation
Sf Sub Frz Factor Pct Depth IcePct Cond Salin Type Intens Accum Rate
03/28/2015 20:33 Wet 42.4F 51F 32F 15 0% 0.00 in 0% 0 mhos 11 Yes - - -
03/28/2015 20:23 Wet 42.8F 51F 32F 15 0% 0.00 in 0% 0 mhos 10 Yes - - -
03/28/2015 20:21 Wet 42.8F 51F 32F 20 0% 0.00 in 0% 0 mhos 33 Yes - - -
03/28/2015 20:13 Wet 43.2F 51F 32F 50 0% 0.00 in 0% 1 mhos 67 Yes - - -
03/28/2015 20:10 Wet 43.2F 51F 32F 80 0% 0.00 in 0% 1 mhos 70 Yes - - -
03/28/2015 20:03 Wet 43.2F 51F 32F 55 0% 0.00 in 0% 1 mhos 46 Yes - - -
03/28/2015 19:53 Wet 43.7F 50F 32F 60 0% 0.00 in 0% 2 mhos 139 Yes - - -
03/28/2015 19:51 Wet 43.7F 50F 32F 70 0% 0.00 in 0% 2 mhos 140 Yes - - -
03/28/2015 19:43 Wet 43.9F 50F 32F 65 0% 0.00 in 0% 2 mhos 143 Yes - - -
03/28/2015 19:39 Wet 44.4F 50F 32F 70 0% 0.00 in 0% 2 mhos 131 Yes - - -
03/28/2015 19:33 Wet 44.8F 50F 32F 65 0% 0.00 in 0% 1 mhos 60 Yes - - -
03/28/2015 19:23 Wet 46.8F 50F 32F 35 0% 0.30 in 0% 0 mhos 1 Yes - - -
03/28/2015 19:21 Wet 47.5F 50F 32F 5 0% 0.00 in 0% 0 mhos 1 None None - -
03/28/2015 19:13 Wet 48.9F 50F 32F 5 0% 0.00 in 0% 0 mhos 0 None None - -
03/28/2015 19:10 Wet 48.7F 50F 32F 5 0% 0.00 in 0% 0 mhos 0 None None - -
Date/Time
(MDT)
Sf
Temp Chem Water Layer Surface Precipitation
Sf Sub Frz Factor Pct Depth IcePct Cond Salin Type Intens Accum Rate
03/28/2015 19:03 Wet 48.0F 50F 32F 30 0% 0.00 in 0% 0 mhos 0 Yes - - -
03/28/2015 18:53 Wet 51.3F 50F 32F 5 0% 0.00 in 0% 0 mhos 0 None None - -
03/28/2015 18:51 Wet 51.3F 50F 32F 5 0% 0.00 in 0% 0 mhos 0 None None - -
03/28/2015 18:43 Wet 51.4F 50F 32F 5 0% 0.00 in 0% 0 mhos 0 None None - -
03/28/2015 18:38 Wet 51.4F 50F 32F 5 0% 0.00 in 0% 0 mhos 0 None None - -
03/28/2015 18:32 Wet 52.0F 50F 32F 5 0% 0.00 in 0% 0 mhos 0 None None - -
03/28/2015 18:22 Trace Moisture 54.0F 50F - 5 - - - 0 mhos 0 None None - -
03/28/2015 18:21 Trace Moisture 54.1F 50F - 5 - - - 0 mhos 0 None None - -
03/28/2015 18:12 Dry 54.9F 50F - - - - - 0 mhos 0 None None - -
03/28/2015 18:09 Dry 55.2F 50F - - - - - 0 mhos 0 None None - -
03/28/2015 18:02 Dry 55.8F 50F - - - - - 0 mhos 0 None None - -
03/28/2015 17:52 Dry 56.8F 50F - - - - - 0 mhos 0 None None - -
03/28/2015 17:51 Dry 57.0F 50F - - - - - 0 mhos 0 None None - -
03/28/2015 17:42 Dry 58.1F 50F - - - - - 0 mhos 0 None None - -
03/28/2015 17:39 Dry 58.6F 50F - - - - - 0 mhos 0 None None - -
Date/Time
(MDT)
Sf
Temp Chem Water Layer Surface Precipitation
Sf Sub Frz Factor Pct Depth IcePct Cond Salin Type Intens Accum Rate
03/28/2015 17:32 Dry 60.3F 50F - - - - - 0 mhos 0 None None - -
03/28/2015 17:22 Dry 60.3F 50F - - - - - 0 mhos 0 None None - -
03/28/2015 17:21 Dry 60.6F 50F - - - - - 0 mhos 0 None None - -
03/28/2015 17:12 Dry 62.2F 50F - - - - - 0 mhos 0 None None - -
03/28/2015 17:10 Dry 62.2F 50F - - - - - 0 mhos 0 None None - -
03/28/2015 17:02 Dry 62.8F 50F - - - - - 0 mhos 0 None None - -
03/28/2015 16:52 Dry 63.9F 50F - - - - - 0 mhos 0 None None - -
03/28/2015 16:51 Dry 63.7F 50F - - - - - 0 mhos 0 None None - -
03/28/2015 16:42 Dry 64.8F 50F - - - - - 0 mhos 0 None None - -
03/28/2015 16:39 Dry 65.7F 50F - - - - - 0 mhos 0 None None - -
03/28/2015 16:32 Dry 65.8F 50F - - - - - 0 mhos 0 None None - -
03/28/2015 16:22 Dry 66.4F 50F - - - - - 0 mhos 0 None None - -
03/28/2015 16:21 Dry 66.7F 50F - - - - - 0 mhos 0 None None - -
03/28/2015 16:12 Dry 67.3F 50F - - - - - 0 mhos 0 None None - -
03/28/2015 16:10 Dry 67.8F 50F - - - - - 0 mhos 0 None None - -
Date/Time
(MDT)
Sf
Temp Chem Water Layer Surface Precipitation
Sf Sub Frz Factor Pct Depth IcePct Cond Salin Type Intens Accum Rate
03/28/2015 16:02 Dry 67.8F 50F - - - - - 0 mhos 0 None None - -
03/28/2015 15:52 Dry 70.7F 50F - - - - - 0 mhos 0 None None - -
03/28/2015 15:51 Dry 71.2F 50F - - - - - 0 mhos 0 None None - -
03/28/2015 15:42 Dry 70.3F 50F - - - - - 0 mhos 0 None None - -
03/28/2015 15:38 Dry 70.2F 50F - - - - - 0 mhos 0 None None - -
03/28/2015 15:32 Dry 70.3F 50F - - - - - 0 mhos 0 None None - -
03/28/2015 15:22 Dry 70.3F 50F - - - - - 0 mhos 0 None None - -
03/28/2015 15:21 Dry 70.5F 50F - - - - - 0 mhos 0 None None - -
03/28/2015 15:12 Dry 70.7F 49F - - - - - 0 mhos 0 None None - -
03/28/2015 15:10 Dry 70.5F 50F - - - - - 0 mhos 0 None None - -
03/28/2015 15:02 Dry 70.7F 49F - - - - - 0 mhos 0 None None - -
03/28/2015 14:52 Dry 71.1F 49F - - - - - 0 mhos 0 None None - -
03/28/2015 14:51 Dry 71.1F 49F - - - - - 0 mhos 0 None None - -
03/28/2015 14:42 Dry 71.8F 49F - - - - - 0 mhos 0 None None - -
03/28/2015 14:39 Dry 72.1F 49F - - - - - 0 mhos 0 None None - -
Date/Time
(MDT)
Sf
Temp Chem Water Layer Surface Precipitation
Sf Sub Frz Factor Pct Depth IcePct Cond Salin Type Intens Accum Rate
03/28/2015 14:32 Dry 71.8F 49F - - - - - 0 mhos 0 None None - -
03/28/2015 14:22 Dry 71.4F 49F - - - - - 0 mhos 0 None None - -
03/28/2015 14:21 Dry 71.2F 49F - - - - - 0 mhos 0 None None - -
03/28/2015 14:12 Dry 67.8F 49F - - - - - 0 mhos 0 None None - -
03/28/2015 14:09 Dry 70.3F 49F - - - - - 0 mhos 0 None None - -
03/28/2015 14:02 Dry 70.9F 49F - - - - - 0 mhos 0 None None - -
03/28/2015 13:52 Dry 71.1F 49F - - - - - 0 mhos 0 None None - -
03/28/2015 13:51 Dry 71.1F 49F - - - - - 0 mhos 0 None None - -
03/28/2015 13:41 Dry 70.3F 49F - - - - - 0 mhos 0 None None - -
03/28/2015 13:38 Dry 70.3F 49F - - - - - 0 mhos 0 None None - -
03/28/2015 13:31 Dry 65.8F 49F - - - - - 0 mhos 0 None None - -
03/28/2015 13:21 Dry 63.9F 49F - - - - - 0 mhos 0 None None - -
03/28/2015 13:21 Dry 63.9F 49F - - - - - 0 mhos 0 None None - -
03/28/2015 13:11 Trace Moisture 61.0F 49F - 5 - - - 0 mhos 0 None None - -
03/28/2015 13:09 Trace Moisture 59.4F 49F - 5 - - - 0 mhos 0 None None - -
Date/Time
(MDT)
Sf
Temp Chem Water Layer Surface Precipitation
Sf Sub Frz Factor Pct Depth IcePct Cond Salin Type Intens Accum Rate
03/28/2015 13:01 Trace Moisture 59.9F 49F - 5 - - - 0 mhos 0 None None - -
03/28/2015 12:51 Trace Moisture 62.2F 49F - 5 - - - 0 mhos 0 None None - -
03/28/2015 12:51 Trace Moisture 62.2F 49F - 5 - - - 0 mhos 0 None None - -
03/28/2015 12:41 Trace Moisture 63.3F 49F - 5 - - - 0 mhos 0 None None - -
03/28/2015 12:38 Trace Moisture 63.3F 49F - 5 - - - 0 mhos 0 None None - -
03/28/2015 12:31 Trace Moisture 64.8F 49F - 5 - - - 0 mhos 0 None None - -
03/28/2015 12:21 Trace Moisture 65.3F 49F - 5 - - - 0 mhos 0 None None - -
03/28/2015 12:21 Dry 65.5F 49F - - - - - 0 mhos 0 None None - -
03/28/2015 12:11 Dry 68.7F 49F - - - - - 0 mhos 0 None None - -
03/28/2015 12:10 Dry 68.5F 49F - - - - - 0 mhos 0 None None - -
03/28/2015 12:01 Trace Moisture 65.1F 49F - 5 - - - 0 mhos 0 None None - -
03/28/2015 11:51 Trace Moisture 61.0F 49F - 5 - - - 0 mhos 0 None None - -
03/28/2015 11:51 Trace Moisture 61.3F 49F - 5 - - - 0 mhos 0 None None - -
03/28/2015 11:41 Trace Moisture 64.4F 49F - 5 - - - 0 mhos 0 None None - -
03/28/2015 11:32 Trace Moisture 67.6F 49F - 5 - - - 0 mhos 0 None None - -
Date/Time
(MDT)
Sf
Temp Chem Water Layer Surface Precipitation
Sf Sub Frz Factor Pct Depth IcePct Cond Salin Type Intens Accum Rate
03/28/2015 11:31 Trace Moisture 67.1F 49F - 5 - - - 0 mhos 0 None None - -
03/28/2015 11:21 Trace Moisture 61.5F 49F - 5 - - - 0 mhos 0 None None - -
03/28/2015 11:13 Trace Moisture 61.2F 49F - 5 - - - 0 mhos 0 None None - -
03/28/2015 11:11 Trace Moisture 61.2F 49F - 5 - - - 0 mhos 0 None None - -
03/28/2015 11:01 Trace Moisture 61.7F 49F - 5 - - - 0 mhos 0 None None - -
03/28/2015 10:51 Trace Moisture 61.7F 50F - 5 - - - 0 mhos 0 None None - -
03/28/2015 10:51 Trace Moisture 61.9F 49F - 5 - - - 0 mhos 0 None None - -
03/28/2015 10:41 Trace Moisture 61.0F 50F - 5 - - - 0 mhos 0 None None - -
03/28/2015 10:41 Trace Moisture 61.0F 50F - 5 - - - 0 mhos 0 None None - -
03/28/2015 10:31 Trace Moisture 61.0F 50F - 5 - - - 0 mhos 0 None None - -
03/28/2015 10:21 Dry 62.1F 50F - - - - - 0 mhos 0 None None - -
03/28/2015 10:21 Dry 62.2F 50F - - - - - 0 mhos 0 None None - -
03/28/2015 10:11 Dry 62.8F 50F - - - - - 0 mhos 0 None None - -
03/28/2015 10:10 Dry 62.2F 50F - - - - - 0 mhos 0 None None - -
03/28/2015 10:01 Dry 62.2F 50F - - - - - 0 mhos 0 None None - -
Date/Time
(MDT)
Sf
Temp Chem Water Layer Surface Precipitation
Sf Sub Frz Factor Pct Depth IcePct Cond Salin Type Intens Accum Rate
03/28/2015 09:51 Dry 63.7F 50F - - - - - 0 mhos 0 None None - -
03/28/2015 09:51 Dry 64.2F 50F - - - - - 0 mhos 0 None None - -
03/28/2015 09:41 Dry 64.4F 50F - - - - - 0 mhos 0 None None - -
03/28/2015 09:40 Dry 64.4F 50F - - - - - 0 mhos 0 None None - -
03/28/2015 09:31 Trace Moisture 63.3F 50F - 5 - - - 0 mhos 0 None None - -
03/28/2015 09:21 Trace Moisture 61.0F 50F - 5 - - - 0 mhos 0 None None - -
03/28/2015 09:21 Trace Moisture 61.0F 50F - 5 - - - 0 mhos 0 None None - -
03/28/2015 09:11 Trace Moisture 58.8F 50F - 5 - - - 0 mhos 0 None None - -
03/28/2015 09:11 Trace Moisture 58.8F 50F - 5 - - - 0 mhos 0 None None - -
03/28/2015 09:01 Trace Moisture 56.3F 50F - 5 - - - 0 mhos 0 None None - -
03/28/2015 08:51 Trace Moisture 54.1F 50F - 5 - - - 0 mhos 0 None None - -
03/28/2015 08:50 Trace Moisture 54.0F 50F - 5 - - - 0 mhos 0 None None - -
03/28/2015 08:40 Trace Moisture 52.7F 50F - 5 - - - 0 mhos 0 None None - -
03/28/2015 08:40 Trace Moisture 52.7F 50F - 5 - - - 0 mhos 0 None None - -
03/28/2015 08:30 Trace Moisture 51.4F 50F - 5 - - - 0 mhos 0 None None - -
Date/Time
(MDT)
Sf
Temp Chem Water Layer Surface Precipitation
Sf Sub Frz Factor Pct Depth IcePct Cond Salin Type Intens Accum Rate
03/28/2015 08:21 Trace Moisture 50.4F 50F - 5 - - - 0 mhos 0 None None - -
03/28/2015 08:20 Trace Moisture 50.2F 50F - 5 - - - 0 mhos 0 None None - -
03/28/2015 08:10 Trace Moisture 50.0F 50F - 5 - - - 0 mhos 0 None None - -
03/28/2015 08:10 Trace Moisture 50.0F 50F - 5 - - - 0 mhos 0 None None - -
03/28/2015 08:00 Trace Moisture 49.8F 50F - 5 - - - 0 mhos 0 None None - -
03/28/2015 07:51 Trace Moisture 48.7F 50F - 5 - - - 0 mhos 0 None None - -
03/28/2015 07:50 Trace Moisture 48.6F 50F - 5 - - - 0 mhos 0 None None - -
03/28/2015 07:40 Trace Moisture 47.1F 50F - 5 - - - 0 mhos 0 None None - -
03/28/2015 07:40 Trace Moisture 47.1F 50F - 5 - - - 0 mhos 0 None None - -
03/28/2015 07:30 Trace Moisture 45.7F 50F - 5 - - - 0 mhos 0 None None - -
03/28/2015 07:21 Trace Moisture 45.0F 50F - 5 - - - 0 mhos 0 None None - -
03/28/2015 07:20 Trace Moisture 45.0F 50F - 5 - - - 0 mhos 0 None None - -
03/28/2015 07:10 Trace Moisture 44.4F 50F - 5 - - - 0 mhos 0 None None - -
03/28/2015 07:09 Trace Moisture 44.4F 50F - 5 - - - 0 mhos 0 None None - -
03/28/2015 07:00 Trace Moisture 43.9F 50F - 5 - - - 0 mhos 0 None None - -
Date/Time
(MDT)
Sf
Temp Chem Water Layer Surface Precipitation
Sf Sub Frz Factor Pct Depth IcePct Cond Salin Type Intens Accum Rate
03/28/2015 06:52 Trace Moisture 43.5F 50F - 5 - - - 0 mhos 0 None None - -
03/28/2015 06:50 Trace Moisture 43.5F 50F - 5 - - - 0 mhos 0 None None - -
03/28/2015 06:41 Trace Moisture 43.7F 50F - 5 - - - 0 mhos 0 None None - -
03/28/2015 06:40 Trace Moisture 43.7F 51F - 5 - - - 0 mhos 0 None None - -
03/28/2015 06:30 Trace Moisture 43.7F 51F - 5 - - - 0 mhos 0 None None - -
Change End Date:
Copyright © 1998-2005 Surface Systems, Inc.
All Rights Reserved
Send comments about the data to:
SCAN Web ® is a registered trademark of Surface Systems, Inc.
SCAN Web Version 5.6